Location: Arpaise
(41.0333°N, 14.7333°E)
Time: 00:51:22
(UTC+00:00)

CZ-2C R/B - Pass Details

Date: 05 July 2020
Orbit: 784 x 871 km, 98.3° (Epoch: 11 August)

Event Time Altitude Azimuth Distance (km) Brightness Sun altitude
Rises 19:07:16 0° 12° (NNE) 3,397 6.2 -5.7°
Reaches altitude 10° 19:09:40 10° 11° (NNE) 2,446 5.5 -6.0°
Maximum altitude 19:15:05 83° 285° (WNW) 827 2.8 -6.8°
Drops below altitude 10° 19:20:20 10° 198° (SSW) 2,373 4.8 -7.6°
Sets 19:22:38 0° 197° (SSW) 3,289 5.5 -7.9°
